"startDT [UTC]","vpos","CH4 [ppm]","stdev(CH4) [ppm]","CO2 [ppm]","stdev(CO2) [ppm]","H2O_reported [%]","stdev(H2O_reported)","CavityPressure [torr]","CavityTemp [C]","OutletValve","CH4_dry [ppm]","CO2_dry [ppm]","DasTemp [C]","EtalonTemp [C]","WarmBoxTemp [C]","MPVPosition","T_ECpre [C]","T_EC1 [C]","T_EC2 [C]","p_inlet [hPa]","p_in [hPa]","p_out [hPa]","T_inlet [C]","RH_inlet [%]","dwpt_inlet [C]","T_vent [C]","RH_vent [%]","dwpt_vent [C]","flow_vent [l min-1]","flow_inlet [l min-1]","dwpt_sample [C]","T_room [C]"
2016-03-04 00:00:00,3.0,1.88076,0.01774,399.048,2.841,0.0254,0.0374,139.987,44.998,31374.19680,1.88303,399.332,34.739,45.070,45.000,0.00,0.08,-272.77,-272.81,-7,487,-950,21.6,3.5,-23.8,21.6,3.6,-23.5,5.73,2.09,-19.1,27.8
2016-03-04 00:01:00,3.0,1.87556,0.00028,396.922,0.044,0.0052,0.0016,139.999,45.000,31355.91624,1.87566,396.948,34.725,45.070,45.000,0.00,0.08,-272.77,-272.83,-6,486,-950,21.6,3.5,-23.8,21.6,3.6,-23.5,5.73,1.82,-19.1,27.8
2016-03-04 00:02:00,3.0,1.87543,0.00051,397.188,0.120,0.0065,0.0019,140.000,45.000,31350.29154,1.87554,397.213,34.707,45.070,45.000,0.00,0.08,-272.77,-272.82,-8,486,-950,21.6,3.5,-23.8,21.6,3.6,-23.5,5.73,1.89,-19.1,27.8
2016-03-04 00:03:00,3.0,1.87515,0.00031,397.423,0.033,0.0049,0.0023,139.998,45.000,31345.99847,1.87526,397.443,34.701,45.070,45.000,0.00,0.08,-272.76,-272.82,-7,486,-950,21.6,3.5,-23.8,21.7,3.6,-23.5,5.73,2.05,-19.1,27.8
2016-03-04 00:04:00,3.0,1.87530,0.00044,397.452,0.034,0.0038,0.0018,140.001,45.000,31341.24932,1.87534,397.470,34.695,45.071,45.001,0.00,0.08,-272.76,-272.83,-7,486,-950,21.7,3.5,-23.8,21.7,3.6,-23.4,5.73,1.72,-19.1,27.9
2016-03-04 00:05:00,3.0,1.87540,0.00025,397.451,0.036,0.0032,0.0014,140.001,45.000,31338.54068,1.87548,397.467,34.719,45.071,45.001,0.00,0.08,-272.77,-272.83,-8,486,-950,21.7,3.5,-23.7,21.7,3.6,-23.5,5.73,2.09,-19.1,27.9
2016-03-04 00:06:00,3.0,1.87546,0.00030,397.449,0.031,0.0025,0.0020,140.000,44.999,31335.46409,1.87551,397.460,34.750,45.071,45.000,0.00,0.08,-272.75,-272.83,-7,486,-950,21.7,3.5,-23.7,21.7,3.6,-23.4,5.73,1.82,-19.1,27.9
2016-03-04 00:07:00,3.0,1.87551,0.00040,397.444,0.030,0.0025,0.0019,139.998,44.999,31333.09466,1.87555,397.457,34.743,45.071,45.000,0.00,0.08,-272.76,-272.82,-7,486,-950,21.8,3.5,-23.7,21.7,3.6,-23.4,5.73,1.89,-19.1,27.9
2016-03-04 00:08:00,3.0,1.87552,0.00040,397.453,0.028,0.0018,0.0019,139.996,44.998,31330.50472,1.87556,397.460,34.736,45.070,45.000,0.00,0.08,-272.77,-272.83,-8,486,-950,21.8,3.5,-23.7,21.8,3.6,-23.4,5.73,2.05,-19.1,27.9
2016-03-04 00:09:00,3.0,1.87556,0.00039,397.449,0.033,0.0019,0.0018,139.999,44.998,31328.64482,1.87556,397.459,34.721,45.070,45.000,0.00,0.08,-272.76,-272.82,-7,486,-950,21.9,3.5,-23.7,21.8,3.6,-23.4,5.73,1.72,-19.1,27.9
2016-03-04 00:10:00,3.0,1.87552,0.00027,397.473,0.028,0.0007,0.0016,139.999,44.998,31329.73938,1.87555,397.475,34.690,45.070,45.000,0.00,0.08,-272.77,-272.82,-7,486,-950,21.9,3.5,-23.7,21.8,3.6,-23.4,5.73,2.11,-19.1,28.0
2016-03-04 00:11:00,3.0,1.87554,0.00030,397.454,0.041,-0.0002,0.0016,139.999,44.999,31330.10072,1.87554,397.454,34.695,45.070,45.000,0.00,0.08,-272.77,-272.83,-8,486,-950,21.9,3.4,-23.7,21.8,3.6,-23.4,5.73,1.80,-19.1,28.0
2016-03-04 00:12:00,3.0,1.87548,0.00030,397.466,0.032,0.0000,0.0023,139.999,45.000,31329.55088,1.87548,397.466,34.725,45.070,45.000,0.00,0.08,-272.78,-272.82,-6,486,-950,22.0,3.4,-23.6,21.9,3.6,-23.3,5.73,1.92,-19.1,28.0
2016-03-04 00:13:00,3.0,1.87556,0.00038,397.465,0.033,0.0003,0.0016,139.998,45.001,31328.51432,1.87556,397.467,34.749,45.070,45.000,0.00,0.08,-272.76,-272.82,-7,487,-950,22.0,3.4,-23.7,21.9,3.6,-23.3,5.73,2.02,-19.1,28.0
2016-03-04 00:14:00,3.0,1.87572,0.00045,397.462,0.021,-0.0002,0.0020,140.001,45.001,31328.91822,1.87572,397.461,34.749,45.070,45.000,0.00,0.08,-272.77,-272.82,-8,487,-950,22.0,3.4,-23.7,21.9,3.5,-23.4,5.73,1.73,-19.1,28.1
2016-03-04 00:15:00,3.0,1.87543,0.00038,397.457,0.032,0.0001,0.0016,140.000,45.001,31331.09646,1.87543,397.457,34.750,45.070,45.000,0.00,0.08,-272.77,-272.82,-6,487,-950,22.0,3.4,-23.7,22.0,3.5,-23.3,5.73,2.11,-19.1,28.1
2016-03-04 00:16:00,3.0,1.87573,0.00030,397.483,0.035,0.0001,0.0019,139.997,45.000,31329.81432,1.87571,397.483,34.748,45.070,45.000,0.00,0.08,-272.76,-272.82,-8,487,-950,22.1,3.4,-23.6,22.0,3.5,-23.4,5.73,1.76,-19.0,28.1
2016-03-04 00:17:00,3.0,1.87566,0.00032,397.457,0.045,-0.0006,0.0014,139.998,45.001,31330.89969,1.87566,397.456,34.751,45.070,45.000,0.00,0.08,-272.77,-272.82,-8,487,-950,22.2,3.4,-23.6,22.0,3.5,-23.3,5.73,1.97,-19.0,28.1
2016-03-04 00:18:00,3.0,1.87573,0.00042,397.465,0.027,0.0001,0.0022,140.000,44.999,31332.51699,1.87575,397.464,34.765,45.070,45.000,0.00,0.08,-272.77,-272.83,-6,487,-950,22.2,3.4,-23.7,22.0,3.5,-23.3,5.73,1.96,-19.0,28.1
2016-03-04 00:19:00,3.0,1.87582,0.00043,397.454,0.032,-0.0002,0.0020,139.999,44.999,31331.41410,1.87579,397.453,34.771,45.070,45.000,0.00,0.08,-272.76,-272.82,-8,487,-950,22.2,3.4,-23.7,22.1,3.5,-23.3,5.73,1.77,-19.0,28.1
2016-03-04 00:20:00,0.0,1.92084,0.01703,404.658,2.905,0.0905,0.0411,140.013,44.999,31503.08382,1.92086,404.951,34.778,45.070,45.000,0.00,0.08,-272.76,-272.82,-9,512,-950,22.3,3.4,-23.6,22.1,3.5,-23.3,5.73,2.10,-19.0,28.1
2016-03-04 00:21:00,0.0,1.92749,0.00037,405.918,0.030,0.1145,0.0013,140.000,44.999,31522.20610,1.92964,406.479,34.790,45.070,45.000,0.00,0.08,-272.76,-272.83,-8,513,-950,22.3,3.4,-23.6,22.1,3.5,-23.3,5.73,1.88,-19.0,28.2
2016-03-04 00:22:00,0.0,1.92753,0.00044,405.894,0.028,0.1160,0.0014,140.000,45.000,31527.04825,1.92975,406.461,34.807,45.070,45.000,0.00,0.08,-272.77,-272.82,-9,514,-950,22.3,3.4,-23.6,22.2,3.5,-23.2,5.73,1.85,-19.0,28.2
2016-03-04 00:23:00,0.0,1.92730,0.00037,405.885,0.028,0.1150,0.0015,139.998,45.000,31535.00209,1.92949,406.449,34.811,45.070,45.000,0.00,0.08,-272.77,-272.82,-10,514,-950,22.3,3.4,-23.6,22.2,3.5,-23.3,5.73,2.15,-19.0,28.2
2016-03-04 00:24:00,0.0,1.92723,0.00031,405.873,0.027,0.1154,0.0020,140.000,45.000,31538.98195,1.92944,406.436,34.812,45.070,45.000,0.00,0.08,-272.77,-272.83,-9,514,-950,22.3,3.4,-23.7,22.2,3.5,-23.3,5.73,1.88,-19.0,28.2
2016-03-04 00:25:00,0.0,1.92732,0.00031,405.864,0.033,0.1158,0.0021,139.999,44.999,31541.40916,1.92948,406.430,34.812,45.070,45.000,0.00,0.08,-272.77,-272.83,-8,514,-950,22.4,3.4,-23.6,22.2,3.5,-23.3,5.73,1.85,-19.0,28.2
2016-03-04 00:26:00,0.0,1.92728,0.00031,405.875,0.035,0.1154,0.0013,139.999,45.000,31543.27295,1.92949,406.440,34.813,45.070,45.000,0.00,0.08,-272.77,-272.82,-9,514,-950,22.4,3.3,-23.7,22.2,3.5,-23.3,5.73,2.14,-19.0,28.2
2016-03-04 00:27:00,0.0,1.92709,0.00034,405.860,0.024,0.1161,0.0013,140.001,45.000,31546.63710,1.92927,406.427,34.808,45.070,45.000,0.00,0.08,-272.76,-272.83,-9,515,-950,22.4,3.3,-23.7,22.3,3.5,-23.4,5.73,1.88,-18.9,28.2
2016-03-04 00:28:00,0.0,1.92712,0.00037,405.873,0.027,0.1156,0.0018,140.000,45.001,31549.00460,1.92934,406.439,34.764,45.070,45.000,0.00,0.08,-272.77,-272.82,-8,515,-950,22.4,3.3,-23.7,22.3,3.5,-23.3,5.73,1.85,-19.0,28.2
2016-03-04 00:29:00,0.0,1.92692,0.00038,405.860,0.027,0.1167,0.0013,140.001,45.001,31553.06050,1.92915,406.430,34.753,45.070,45.000,0.00,0.08,-272.77,-272.82,-8,515,-950,22.4,3.4,-23.6,22.3,3.5,-23.3,5.73,2.14,-18.9,28.3
2016-03-04 00:30:00,0.0,1.92692,0.00043,405.836,0.026,0.1167,0.0018,140.001,45.000,31555.17273,1.92911,406.407,34.750,45.070,45.000,0.00,0.08,-272.76,-272.82,-9,515,-950,22.4,3.4,-23.6,22.3,3.5,-23.3,5.73,1.88,-18.9,28.3
2016-03-04 00:31:00,0.0,1.92703,0.00039,405.860,0.030,0.1170,0.0015,140.001,45.000,31557.06846,1.92924,406.433,34.760,45.071,45.001,0.00,0.08,-272.77,-272.82,-9,515,-950,22.4,3.4,-23.6,22.3,3.5,-23.3,5.73,1.85,-18.9,28.3
2016-03-04 00:32:00,0.0,1.92704,0.00035,405.857,0.033,0.1168,0.0018,140.000,45.000,31556.55803,1.92928,406.428,34.758,45.071,45.001,0.00,0.08,-272.77,-272.82,-8,515,-950,22.4,3.3,-23.7,22.3,3.5,-23.3,5.73,2.14,-18.9,28.3
2016-03-04 00:33:00,0.0,1.92695,0.00026,405.860,0.035,0.1161,0.0021,139.998,45.000,31557.02221,1.92915,406.427,34.782,45.071,45.001,0.00,0.08,-272.75,-272.82,-9,515,-950,22.4,3.3,-23.7,22.3,3.5,-23.3,5.73,1.87,-18.9,28.3
2016-03-04 00:34:00,0.0,1.92706,0.00033,405.872,0.035,0.1171,0.0016,140.002,45.001,31559.22715,1.92929,406.446,34.800,45.070,45.000,0.00,0.08,-272.76,-272.82,-10,515,-950,22.4,3.3,-23.7,22.3,3.5,-23.3,5.73,1.86,-18.9,28.3
2016-03-04 00:35:00,0.0,1.92693,0.00047,405.857,0.030,0.1162,0.0014,140.001,45.001,31560.78273,1.92913,406.424,34.810,45.070,45.000,0.00,0.08,-272.77,-272.83,-9,515,-950,22.4,3.3,-23.7,22.3,3.5,-23.3,5.73,2.14,-18.9,28.3
2016-03-04 00:36:00,0.0,1.92666,0.00028,405.853,0.036,0.1158,0.0013,139.996,45.000,31563.36986,1.92887,406.419,34.834,45.070,45.000,0.00,0.08,-272.76,-272.82,-8,515,-950,22.4,3.3,-23.7,22.3,3.5,-23.3,5.73,1.86,-18.9,28.3
2016-03-04 00:37:00,0.0,1.92677,0.00032,405.856,0.032,0.1160,0.0015,139.999,45.000,31565.36350,1.92896,406.423,34.864,45.070,45.000,0.00,0.08,-272.77,-272.82,-9,515,-950,22.4,3.3,-23.7,22.3,3.5,-23.3,5.73,1.87,-18.9,28.3
2016-03-04 00:38:00,0.0,1.92690,0.00036,405.856,0.033,0.1169,0.0015,139.999,45.000,31566.96282,1.92911,406.428,34.875,45.069,44.999,0.00,0.08,-272.77,-272.83,-9,516,-950,22.4,3.3,-23.7,22.3,3.5,-23.4,5.73,2.14,-18.9,28.3
2016-03-04 00:39:00,0.0,1.92686,0.00039,405.829,0.029,0.1168,0.0016,139.997,45.000,31566.23212,1.92908,406.401,34.879,45.069,44.999,0.00,0.08,-272.76,-272.83,-8,516,-950,22.4,3.3,-23.7,22.3,3.5,-23.4,5.73,1.85,-18.9,28.3
2016-03-04 00:40:00,0.0,1.92688,0.00033,405.838,0.032,0.1168,0.0014,139.998,45.001,31567.69136,1.92912,406.407,34.877,45.069,44.999,0.00,0.08,-272.76,-272.82,-9,515,-950,22.4,3.3,-23.7,22.3,3.5,-23.3,5.73,1.88,-18.9,28.3
2016-03-04 00:41:00,0.0,1.92696,0.00029,405.853,0.031,0.1165,0.0021,140.003,45.000,31568.70691,1.92915,406.424,34.873,45.069,45.000,0.00,0.08,-272.77,-272.82,-10,515,-950,22.4,3.3,-23.7,22.3,3.5,-23.3,5.73,2.15,-18.9,28.3
2016-03-04 00:42:00,0.0,1.92688,0.00032,405.851,0.028,0.1163,0.0015,140.000,45.001,31568.84182,1.92910,406.419,34.863,45.070,45.000,0.00,0.08,-272.77,-272.82,-9,516,-950,22.4,3.3,-23.7,22.3,3.5,-23.3,5.73,1.83,-18.9,28.3
2016-03-04 00:43:00,0.0,1.92697,0.00027,405.830,0.031,0.1158,0.0016,140.002,45.001,31570.96615,1.92917,406.397,34.841,45.070,45.000,0.00,0.08,-272.77,-272.81,-8,515,-950,22.4,3.3,-23.7,22.3,3.4,-23.4,5.73,1.90,-18.9,28.3
2016-03-04 00:44:00,0.0,1.92699,0.00041,405.855,0.038,0.1153,0.0018,139.999,45.001,31569.86040,1.92918,406.419,34.856,45.070,45.000,0.00,0.08,-272.76,-272.82,-9,515,-950,22.4,3.3,-23.8,22.3,3.4,-23.4,5.73,2.14,-18.9,28.3
2016-03-04 00:45:00,0.0,1.92669,0.00029,405.833,0.038,0.1152,0.0013,139.996,45.000,31570.75169,1.92888,406.397,34.871,45.070,45.000,0.00,0.08,-272.76,-272.83,-9,515,-950,22.4,3.3,-23.8,22.3,3.4,-23.4,5.73,1.81,-18.9,28.3
2016-03-04 00:46:00,0.0,1.92686,0.00048,405.843,0.027,0.1156,0.0017,140.001,45.000,31571.63316,1.92907,406.407,34.871,45.070,45.000,0.00,0.08,-272.77,-272.82,-8,516,-950,22.4,3.3,-23.8,22.3,3.4,-23.4,5.73,1.93,-18.9,28.3
2016-03-04 00:47:00,0.0,1.92663,0.00032,405.832,0.032,0.1162,0.0020,139.997,45.000,31572.11739,1.92884,406.401,34.868,45.070,45.000,0.00,0.08,-272.76,-272.82,-8,515,-950,22.4,3.3,-23.7,22.3,3.4,-23.4,5.73,2.13,-18.9,28.3
2016-03-04 00:48:00,0.0,1.92704,0.00035,405.848,0.024,0.1158,0.0016,140.001,45.000,31571.23918,1.92923,406.414,34.870,45.070,45.000,0.00,0.08,-272.76,-272.82,-10,515,-950,22.3,3.3,-23.8,22.3,3.4,-23.4,5.73,1.80,-18.9,28.3
2016-03-04 00:49:00,0.0,1.92691,0.00037,405.833,0.032,0.1153,0.0016,139.998,45.000,31572.58905,1.92912,406.397,34.826,45.070,45.000,0.00,0.08,-272.77,-272.83,-9,516,-950,22.4,3.3,-23.8,22.3,3.4,-23.4,5.73,1.95,-18.8,28.4
2016-03-04 00:50:00,0.0,1.92678,0.00028,405.828,0.025,0.1168,0.0019,139.999,45.000,31573.52593,1.92900,406.399,34.813,45.070,45.000,0.00,0.08,-272.77,-272.82,-8,515,-949,22.3,3.3,-23.8,22.3,3.4,-23.4,5.73,2.12,-18.8,28.3
2016-03-04 00:51:00,0.0,1.92659,0.00036,405.832,0.022,0.1168,0.0015,140.001,45.001,31574.75403,1.92880,406.403,34.823,45.070,45.000,0.00,0.08,-272.76,-272.82,-9,515,-949,22.3,3.3,-23.7,22.3,3.4,-23.4,5.73,1.78,-18.8,28.3
2016-03-04 00:52:00,0.0,1.92672,0.00035,405.833,0.035,0.1170,0.0014,140.000,45.001,31574.34066,1.92894,406.405,34.873,45.070,45.000,0.00,0.08,-272.78,-272.82,-10,516,-949,22.3,3.3,-23.8,22.3,3.5,-23.4,5.73,1.97,-18.8,28.3
2016-03-04 00:53:00,0.0,1.92674,0.00052,405.835,0.029,0.1165,0.0014,140.000,45.002,31577.20957,1.92896,406.405,34.893,45.070,45.000,0.00,0.08,-272.76,-272.82,-8,516,-949,22.3,3.3,-23.8,22.3,3.5,-23.4,5.73,2.10,-18.8,28.3
2016-03-04 00:54:00,0.0,1.92678,0.00033,405.842,0.028,0.1170,0.0014,139.999,45.001,31577.42312,1.92899,406.414,34.907,45.069,44.999,0.00,0.08,-272.76,-272.82,-8,516,-949,22.3,3.3,-23.7,22.3,3.5,-23.3,5.73,1.77,-18.8,28.3
2016-03-04 00:55:00,0.0,1.92674,0.00031,405.840,0.043,0.1163,0.0015,140.000,45.001,31578.54141,1.92896,406.412,34.938,45.069,44.999,0.00,0.08,-272.78,-272.82,-10,516,-949,22.3,3.3,-23.8,22.3,3.5,-23.3,5.73,2.01,-18.8,28.3
2016-03-04 00:56:00,0.0,1.92654,0.00035,405.826,0.023,0.1162,0.0014,139.999,45.000,31578.25214,1.92877,406.393,34.938,45.069,44.999,0.00,0.08,-272.77,-272.82,-9,516,-949,22.3,3.3,-23.7,22.3,3.5,-23.4,5.73,2.08,-18.8,28.3
2016-03-04 00:57:00,0.0,1.92663,0.00046,405.837,0.024,0.1169,0.0016,139.999,44.999,31577.04203,1.92885,406.408,34.933,45.069,44.999,0.00,0.08,-272.76,-272.82,-8,516,-949,22.3,3.4,-23.7,22.2,3.5,-23.4,5.73,1.77,-18.8,28.3
2016-03-04 00:58:00,0.0,1.92682,0.00034,405.831,0.037,0.1167,0.0016,139.999,44.998,31576.18804,1.92901,406.402,34.887,45.069,44.999,0.00,0.08,-272.77,-272.82,-9,516,-949,22.3,3.4,-23.7,22.3,3.5,-23.4,5.73,2.02,-18.8,28.3
2016-03-04 00:59:00,0.0,1.92682,0.00034,405.835,0.032,0.1165,0.0013,140.000,44.998,31574.21576,1.92906,406.406,34.879,45.070,45.000,0.00,0.08,-272.77,-272.83,-10,516,-949,22.3,3.3,-23.8,22.3,3.5,-23.3,5.73,2.07,-18.8,28.3
2016-03-04 01:00:00,0.0,1.92689,0.00034,405.849,0.041,0.1172,0.0014,139.999,44.998,31572.17866,1.92908,406.419,34.876,45.070,45.000,0.00,0.08,-272.75,-272.82,-9,516,-949,22.2,3.4,-23.7,22.2,3.5,-23.3,5.73,1.76,-18.9,28.3
2016-03-04 01:01:00,0.0,1.92688,0.00044,405.867,0.027,0.1166,0.0019,139.999,44.998,31569.77195,1.92914,406.438,34.880,45.070,45.000,0.00,0.08,-272.77,-272.82,-8,516,-949,22.2,3.4,-23.8,22.3,3.4,-23.4,5.73,2.04,-18.8,28.3
2016-03-04 01:02:00,0.0,1.92701,0.00033,405.873,0.029,0.1168,0.0013,140.000,44.998,31567.97419,1.92920,406.443,34.876,45.070,45.000,0.00,0.08,-272.77,-272.83,-10,516,-949,22.2,3.4,-23.7,22.2,3.5,-23.4,5.73,2.05,-18.9,28.3
2016-03-04 01:03:00,0.0,1.92702,0.00030,405.866,0.035,0.1164,0.0020,140.000,44.999,31566.90260,1.92922,406.435,34.876,45.070,45.000,0.00,0.08,-272.76,-272.83,-10,516,-949,22.2,3.4,-23.7,22.3,3.5,-23.4,5.73,1.76,-18.9,28.3
2016-03-04 01:04:00,0.0,1.92693,0.00042,405.845,0.028,0.1176,0.0018,140.000,44.999,31567.67732,1.92917,406.422,34.875,45.070,45.000,0.00,0.08,-272.76,-272.82,-8,516,-949,22.3,3.4,-23.7,22.3,3.5,-23.3,5.73,2.05,-18.9,28.3
2016-03-04 01:05:00,0.0,1.92681,0.00042,405.844,0.039,0.1171,0.0016,140.000,44.999,31568.97459,1.92904,406.417,34.875,45.070,45.000,0.00,0.08,-272.77,-272.83,-9,515,-949,22.2,3.4,-23.7,22.2,3.5,-23.4,5.73,2.05,-18.9,28.3
2016-03-04 01:06:00,0.0,1.92704,0.00038,405.846,0.033,0.1172,0.0017,140.000,44.999,31565.77449,1.92926,406.420,34.875,45.070,45.000,0.00,0.08,-272.77,-272.83,-10,515,-949,22.2,3.4,-23.6,22.2,3.5,-23.4,5.73,1.76,-18.9,28.3
2016-03-04 01:07:00,0.0,1.92696,0.00041,405.834,0.025,0.1169,0.0019,139.997,45.000,31564.22316,1.92918,406.406,34.875,45.070,45.000,0.00,0.08,-272.77,-272.81,-9,516,-949,22.2,3.4,-23.7,22.2,3.5,-23.3,5.73,2.05,-18.8,28.3
2016-03-04 01:08:00,0.0,1.92716,0.00033,405.855,0.025,0.1166,0.0017,139.998,44.999,31561.02529,1.92935,406.424,34.875,45.070,45.000,0.00,0.08,-272.77,-272.82,-8,515,-949,22.2,3.4,-23.7,22.2,3.5,-23.3,5.73,2.04,-18.9,28.3
2016-03-04 01:09:00,0.0,1.92711,0.00038,405.845,0.027,0.1172,0.0012,140.002,44.998,31562.77664,1.92936,406.418,34.875,45.070,45.000,0.00,0.08,-272.77,-272.83,-9,515,-949,22.2,3.4,-23.7,22.2,3.5,-23.3,5.73,1.76,-18.9,28.3
2016-03-04 01:10:00,0.0,1.92703,0.00037,405.836,0.029,0.1176,0.0015,139.999,44.998,31562.82313,1.92924,406.412,34.875,45.070,45.000,0.00,0.08,-272.77,-272.82,-10,516,-949,22.2,3.4,-23.7,22.2,3.5,-23.3,5.73,2.05,-18.9,28.3
2016-03-04 01:11:00,0.0,1.92683,0.00031,405.836,0.037,0.1178,0.0016,139.998,44.999,31562.04779,1.92909,406.412,34.875,45.070,45.000,0.00,0.08,-272.76,-272.82,-9,516,-949,22.2,3.4,-23.7,22.2,3.5,-23.3,5.73,2.05,-18.9,28.3
2016-03-04 01:12:00,0.0,1.92709,0.00038,405.860,0.028,0.1177,0.0010,139.998,45.000,31561.33106,1.92931,406.436,34.875,45.070,45.000,0.00,0.08,-272.76,-272.82,-9,516,-949,22.2,3.4,-23.7,22.2,3.5,-23.3,5.73,1.77,-18.9,28.3
2016-03-04 01:13:00,0.0,1.92696,0.00038,405.832,0.032,0.1178,0.0015,140.001,45.001,31564.15601,1.92921,406.408,34.878,45.070,45.000,0.00,0.08,-272.77,-272.82,-10,516,-949,22.2,3.4,-23.7,22.2,3.5,-23.3,5.73,2.03,-18.9,28.3
2016-03-04 01:14:00,0.0,1.92685,0.00034,405.835,0.035,0.1178,0.0016,139.999,45.000,31565.05018,1.92909,406.409,34.875,45.070,45.000,0.00,0.08,-272.76,-272.82,-10,516,-949,22.2,3.4,-23.7,22.2,3.5,-23.3,5.73,2.06,-18.9,28.3
2016-03-04 01:15:00,0.0,1.92678,0.00031,405.828,0.032,0.1172,0.0011,139.999,45.001,31566.69007,1.92903,406.403,34.875,45.070,45.000,0.00,0.08,-272.76,-272.82,-8,516,-949,22.2,3.4,-23.7,22.2,3.5,-23.3,5.73,1.76,-18.9,28.3
2016-03-04 01:16:00,0.0,1.92680,0.00036,405.820,0.042,0.1174,0.0013,140.000,45.001,31567.96326,1.92902,406.394,34.875,45.070,45.000,0.00,0.08,-272.77,-272.83,-9,515,-949,22.2,3.4,-23.7,22.2,3.5,-23.3,5.73,2.02,-18.9,28.3
2016-03-04 01:17:00,0.0,1.92670,0.00036,405.850,0.032,0.1179,0.0014,139.999,45.001,31569.20318,1.92894,406.426,34.873,45.070,45.000,0.00,0.08,-272.76,-272.83,-10,515,-949,22.1,3.4,-23.7,22.2,3.5,-23.3,5.73,2.08,-18.9,28.2
2016-03-04 01:18:00,0.0,1.92683,0.00037,405.851,0.027,0.1171,0.0014,139.997,45.001,31569.27479,1.92908,406.425,34.875,45.070,45.000,0.00,0.08,-272.76,-272.82,-9,515,-949,22.1,3.4,-23.7,22.1,3.5,-23.3,5.73,1.77,-18.9,28.2
2016-03-04 01:19:00,0.0,1.92673,0.00036,405.818,0.046,0.1179,0.0015,139.998,45.000,31571.11231,1.92895,406.393,34.875,45.070,45.000,0.00,0.08,-272.78,-272.82,-8,515,-949,22.1,3.4,-23.7,22.1,3.5,-23.4,5.73,1.99,-18.9,28.3
2016-03-04 01:20:00,0.0,1.92640,0.00028,405.833,0.024,0.1180,0.0018,140.001,45.001,31572.55452,1.92865,406.411,34.875,45.070,45.000,0.00,0.08,-272.77,-272.82,-9,515,-949,22.1,3.4,-23.7,22.1,3.5,-23.3,5.73,2.10,-18.9,28.3
2016-03-04 01:21:00,0.0,1.92669,0.00042,405.824,0.027,0.1172,0.0015,139.999,45.001,31572.35688,1.92891,406.396,34.874,45.070,45.000,0.00,0.08,-272.76,-272.82,-10,516,-949,22.1,3.4,-23.7,22.1,3.5,-23.4,5.73,1.78,-18.9,28.2
2016-03-04 01:22:00,0.0,1.92663,0.00033,405.842,0.025,0.1180,0.0016,139.999,45.001,31574.19344,1.92887,406.419,34.851,45.070,45.000,0.00,0.08,-272.77,-272.83,-9,516,-949,22.1,3.4,-23.7,22.1,3.5,-23.4,5.73,1.96,-18.9,28.2
2016-03-04 01:23:00,0.0,1.92639,0.00031,405.813,0.034,0.1181,0.0011,140.000,45.001,31576.60129,1.92866,406.390,34.814,45.070,45.000,0.00,0.08,-272.77,-272.83,-9,515,-949,22.1,3.4,-23.7,22.1,3.5,-23.4,5.73,2.11,-18.9,28.2
2016-03-04 01:24:00,0.0,1.92658,0.00029,405.831,0.031,0.1183,0.0022,140.000,45.001,31575.68258,1.92883,406.409,34.813,45.070,45.000,0.00,0.08,-272.75,-272.82,-10,515,-949,22.1,3.4,-23.7,22.1,3.5,-23.4,5.73,1.80,-18.9,28.2
2016-03-04 01:25:00,0.0,1.92657,0.00033,405.863,0.044,0.1178,0.0009,140.000,45.001,31575.44977,1.92881,406.440,34.796,45.070,45.000,0.00,0.08,-272.77,-272.82,-10,515,-949,22.1,3.4,-23.7,22.1,3.5,-23.3,5.73,1.92,-18.9,28.2
2016-03-04 01:26:00,0.0,1.92632,0.00046,405.842,0.031,0.1177,0.0015,139.997,45.000,31578.19337,1.92857,406.417,34.752,45.071,45.000,0.00,0.08,-272.77,-272.82,-9,515,-949,22.0,3.4,-23.7,22.1,3.5,-23.3,5.73,2.13,-18.9,28.2
2016-03-04 01:27:00,0.0,1.92674,0.00028,405.841,0.040,0.1178,0.0019,140.001,45.000,31577.59728,1.92897,406.417,34.745,45.071,45.001,0.00,0.08,-272.76,-272.82,-8,515,-949,22.0,3.4,-23.7,22.1,3.5,-23.3,5.73,1.83,-18.9,28.2
2016-03-04 01:28:00,0.0,1.92682,0.00040,405.840,0.026,0.1173,0.0016,140.000,45.000,31577.26769,1.92906,406.413,34.734,45.071,45.001,0.00,0.08,-272.77,-272.82,-10,515,-949,22.0,3.4,-23.7,22.1,3.5,-23.2,5.73,1.88,-18.9,28.2
2016-03-04 01:29:00,0.0,1.92675,0.00045,405.858,0.027,0.1177,0.0012,139.997,45.000,31574.78844,1.92895,406.434,34.749,45.071,45.001,0.00,0.08,-272.77,-272.83,-10,515,-949,22.0,3.4,-23.7,22.1,3.5,-23.3,5.73,2.14,-18.9,28.2
2016-03-04 01:30:00,0.0,1.92705,0.00033,405.839,0.038,0.1180,0.0015,140.001,45.000,31575.17538,1.92931,406.415,34.756,45.071,45.001,0.00,0.08,-272.76,-272.83,-9,516,-949,22.0,3.4,-23.6,22.1,3.5,-23.3,5.73,1.86,-18.9,28.2
2016-03-04 01:31:00,0.0,1.92663,0.00037,405.837,0.035,0.1180,0.0013,140.000,45.000,31576.70476,1.92887,406.415,34.782,45.070,45.000,0.00,0.08,-272.76,-272.81,-9,515,-949,22.0,3.4,-23.6,22.1,3.5,-23.2,5.73,1.85,-18.9,28.2
2016-03-04 01:32:00,0.0,1.92657,0.00038,405.842,0.031,0.1183,0.0019,139.998,45.000,31577.59823,1.92881,406.421,34.808,45.070,45.000,0.00,0.08,-272.77,-272.82,-10,515,-949,22.0,3.4,-23.6,22.1,3.5,-23.3,5.73,2.14,-18.9,28.2
2016-03-04 01:33:00,0.0,1.92675,0.00025,405.820,0.028,0.1187,0.0015,139.999,45.000,31577.30901,1.92899,406.401,34.812,45.070,45.000,0.00,0.08,-272.76,-272.83,-9,515,-949,22.0,3.4,-23.6,22.1,3.5,-23.3,5.73,1.91,-18.9,28.2
2016-03-04 01:34:00,0.0,1.92655,0.00041,405.847,0.035,0.1182,0.0016,140.000,45.000,31577.86728,1.92881,406.423,34.789,45.069,44.999,0.00,0.08,-272.77,-272.81,-8,515,-949,22.0,3.4,-23.6,22.1,3.5,-23.3,5.73,1.81,-18.9,28.2
2016-03-04 01:35:00,0.0,1.92657,0.00040,405.847,0.027,0.1186,0.0014,139.998,45.000,31576.21142,1.92881,406.428,34.767,45.070,45.000,0.00,0.08,-272.77,-272.82,-9,515,-949,22.0,3.4,-23.6,22.1,3.5,-23.3,5.73,2.12,-18.9,28.2
2016-03-04 01:36:00,0.0,1.92658,0.00046,405.857,0.034,0.1181,0.0017,139.997,45.000,31573.93311,1.92882,406.434,34.800,45.070,45.000,0.00,0.08,-272.76,-272.83,-10,515,-949,22.0,3.4,-23.6,22.1,3.5,-23.3,5.73,1.96,-18.9,28.2
2016-03-04 01:37:00,0.0,1.92682,0.00029,405.836,0.033,0.1180,0.0019,139.999,45.000,31575.89665,1.92902,406.415,34.795,45.070,45.000,0.00,0.08,-272.76,-272.82,-9,516,-949,22.0,3.4,-23.6,22.1,3.5,-23.3,5.73,1.79,-18.9,28.2
2016-03-04 01:38:00,0.0,1.92679,0.00029,405.840,0.030,0.1188,0.0017,139.998,45.000,31573.72078,1.92907,406.421,34.781,45.070,45.000,0.00,0.08,-272.76,-272.82,-8,516,-949,22.0,3.4,-23.6,22.1,3.5,-23.3,5.73,2.08,-18.9,28.2
2016-03-04 01:39:00,0.0,1.92672,0.00027,405.836,0.052,0.1181,0.0015,139.999,45.000,31575.69302,1.92898,406.413,34.769,45.070,45.000,0.00,0.08,-272.76,-272.82,-9,515,-949,22.0,3.4,-23.6,22.1,3.5,-23.3,5.73,2.02,-18.9,28.2
2016-03-04 01:40:00,0.0,1.92684,0.00035,405.824,0.025,0.1189,0.0015,140.001,45.001,31576.88633,1.92911,406.405,34.771,45.070,45.000,0.00,0.08,-272.76,-272.82,-10,515,-949,22.0,3.4,-23.6,22.1,3.5,-23.3,5.73,1.77,-18.9,28.2
2016-03-04 01:41:00,0.0,1.92706,0.00046,405.844,0.040,0.1186,0.0014,139.999,45.001,31575.49198,1.92930,406.424,34.795,45.070,45.000,0.00,0.08,-272.77,-272.82,-9,515,-949,22.0,3.4,-23.6,22.1,3.5,-23.2,5.73,2.03,-18.9,28.2
2016-03-04 01:42:00,0.0,1.92688,0.00026,405.854,0.037,0.1188,0.0013,140.002,45.000,31576.76951,1.92913,406.435,34.782,45.070,45.000,0.00,0.08,-272.77,-272.83,-8,515,-949,22.0,3.4,-23.6,22.0,3.5,-23.3,5.73,2.08,-19.0,28.2
2016-03-04 01:43:00,0.0,1.92684,0.00035,405.861,0.023,0.1186,0.0017,140.000,45.001,31575.17117,1.92910,406.441,34.774,45.070,45.000,0.00,0.08,-272.76,-272.83,-9,515,-949,22.0,3.5,-23.6,22.0,3.6,-23.2,5.73,1.78,-18.9,28.2
2016-03-04 01:44:00,0.0,1.92684,0.00037,405.849,0.032,0.1189,0.0018,139.999,45.001,31575.75674,1.92908,406.429,34.754,45.070,45.000,0.00,0.08,-272.77,-272.82,-10,515,-949,22.0,3.4,-23.6,22.0,3.6,-23.2,5.73,1.97,-19.0,28.2
2016-03-04 01:45:00,0.0,1.92698,0.00032,405.850,0.034,0.1188,0.0015,140.000,45.001,31576.49283,1.92925,406.433,34.750,45.070,45.000,0.00,0.08,-272.77,-272.82,-9,516,-949,22.0,3.5,-23.6,22.0,3.6,-23.2,5.73,2.12,-18.9,28.2